Danvers, MA

7:49 PM EDT on August 25, 2016 (GMT -0400)
Beverly Municipal

Weather History for KBVY - February, 2013

Change the Weather History Date:

Saturday, February 16, 2013

  Actual Average Record
Temperature  
Mean Temperature 34 °F -  
Max Temperature 39 °F 34 °F 54 °F (1981)
Min Temperature 28 °F 18 °F -4 °F (2015)
Degree Days  
Heating Degree Days 32    
Moisture  
Dew Point 27 °F    
Average Humidity 76    
Maximum Humidity 96    
Minimum Humidity 52    
Precipitation  
Precipitation 0.01 in - - ()
Sea Level Pressure  
Sea Level Pressure 29.87 in    
Wind  
Wind Speed 5 mph (NNW)    
Max Wind Speed 14 mph    
Max Gust Speed 22 mph    
Visibility 6 miles    
Events Snow    
Averages and records for this station are not official NWS values.
T = Trace of Precipitation, MM = Missing Value Source: NWS Daily Summary

Daily Weather History Graph

Daily Weather History Graph

Search for Another Location

Airport or City:

Trip Planner

Search our weather history database for the weather conditions in past years. The results will help you decide how hot, cold, wet, or windy it might be!

Date:

Astronomy

Feb. 16, 2013 Rise Set
Actual Time 6:38 AM EST 5:17 PM EST
Civil Twilight 6:09 AM EST 5:46 PM EST
Nautical Twilight 5:37 AM EST 6:19 PM EST
Astronomical Twilight 5:04 AM EST 6:51 PM EST
Moon 9:40 AM EST (2/16) No Moon Set
Length of Visible Light 11h 36m
Length of Day
10h 38m
Waxing Crescent, 39% of the Moon is Illuminated
Feb 16
Waxing Crescent
Feb 17
First Quarter
Feb 25
Full
Mar 4
Last Quarter
Mar 11
New

Hourly Weather History & Observations

Time (EST) Temp. Windchill Dew Point Humidity Pressure Visibility Wind Dir Wind Speed Gust Speed Precip Events Conditions
12:26 AM 28.4 °F - 26.6 °F 93% 29.93 in 2.0 mi Calm Calm - N/A   Clear
12:53 AM 28.9 °F - 27.0 °F 92% 29.93 in 2.5 mi Calm Calm - N/A   Partly Cloudy
1:33 AM 28.4 °F - 24.8 °F 86% 29.93 in 3.0 mi Calm Calm - N/A   Mostly Cloudy
1:53 AM 28.9 °F - 28.0 °F 96% 29.92 in 3.0 mi Calm Calm - N/A   Mostly Cloudy
2:14 AM 30.2 °F - 26.6 °F 86% 29.93 in 2.5 mi Calm Calm - N/A   Overcast
2:21 AM 30.2 °F - 26.6 °F 86% 29.92 in 3.0 mi Calm Calm - N/A   Overcast
2:53 AM 30.0 °F 26.5 °F 28.0 °F 92% 29.91 in 4.0 mi NNW 3.5 mph - N/A   Overcast
3:53 AM 33.1 °F 28.7 °F 26.1 °F 75% 29.91 in 10.0 mi NW 4.6 mph - N/A   Overcast
4:53 AM 35.1 °F 26.4 °F 26.1 °F 70% 29.91 in 10.0 mi NW 12.7 mph - N/A   Overcast
5:53 AM 34.0 °F 25.0 °F 28.0 °F 79% 29.91 in 10.0 mi NNW 12.7 mph 21.9 mph N/A   Overcast
6:53 AM 34.0 °F 26.6 °F 28.0 °F 79% 29.91 in 10.0 mi North 9.2 mph - N/A   Overcast
7:53 AM 34.0 °F 26.6 °F 28.0 °F 79% 29.92 in 10.0 mi NNW 9.2 mph - N/A   Overcast
8:16 AM 33.8 °F 25.8 °F 28.4 °F 81% 29.93 in 1.8 mi NNW 10.4 mph - 0.00 in Snow Light Snow
8:26 AM 33.8 °F 25.8 °F 28.4 °F 81% 29.94 in 1.2 mi NNW 10.4 mph - 0.00 in Snow Light Snow
8:53 AM 33.1 °F 26.9 °F 30.0 °F 89% 29.93 in 1.2 mi NNW 6.9 mph - 0.00 in Snow Light Snow
9:06 AM 33.8 °F 27.0 °F 30.2 °F 87% 29.93 in 0.8 mi NNW 8.1 mph - 0.00 in Snow Light Snow
9:15 AM 33.8 °F 27.7 °F 30.2 °F 87% 29.93 in 1.0 mi NNW 6.9 mph - 0.00 in Snow Light Snow
9:36 AM 33.8 °F 27.0 °F 30.2 °F 87% 29.93 in 0.8 mi NNW 8.1 mph - 0.01 in Snow Light Snow
9:44 AM 33.8 °F 25.8 °F 30.2 °F 87% 29.93 in 1.0 mi NNW 10.4 mph - 0.01 in Snow Light Snow
9:53 AM 33.1 °F 26.1 °F 30.0 °F 89% 29.91 in 1.5 mi NNW 8.1 mph - 0.01 in Snow Light Snow
10:01 AM 33.8 °F 27.7 °F 30.2 °F 87% 29.91 in 2.5 mi North 6.9 mph - 0.00 in Snow Light Snow
10:19 AM 33.8 °F 28.6 °F 28.4 °F 81% 29.91 in 3.0 mi North 5.8 mph - 0.00 in Snow Light Snow
10:53 AM 34.0 °F 28.8 °F 30.0 °F 85% 29.91 in 9.0 mi North 5.8 mph - 0.00 in   Overcast
11:53 AM 35.1 °F 29.3 °F 28.9 °F 78% 29.89 in 2.0 mi NW 6.9 mph - 0.00 in Snow Light Snow
12:39 PM 35.6 °F 29.9 °F 30.2 °F 81% 29.88 in 4.0 mi North 6.9 mph - 0.00 in Snow Light Snow
12:53 PM 36.0 °F 30.3 °F 28.9 °F 76% 29.87 in 7.0 mi NNW 6.9 mph - 0.00 in Snow Light Snow
1:01 PM 35.6 °F 29.9 °F 28.4 °F 75% 29.87 in 9.0 mi Variable 6.9 mph - 0.00 in   Overcast
1:53 PM 37.9 °F 33.5 °F 27.0 °F 65% 29.85 in 10.0 mi NNE 5.8 mph - 0.00 in   Overcast
2:53 PM 39.0 °F 34.8 °F 25.0 °F 57% 29.83 in 10.0 mi NW 5.8 mph - N/A   Overcast
3:53 PM 39.0 °F 34.0 °F 25.0 °F 57% 29.82 in 10.0 mi North 6.9 mph - N/A   Overcast
4:53 PM 37.0 °F 34.5 °F 27.0 °F 67% 29.81 in 10.0 mi ENE 3.5 mph - N/A   Overcast
5:53 PM 37.0 °F 34.5 °F 28.0 °F 70% 29.81 in 10.0 mi NNE 3.5 mph - N/A   Overcast
6:53 PM 36.0 °F 30.3 °F 28.9 °F 76% 29.81 in 10.0 mi North 6.9 mph - N/A   Overcast
7:53 PM 36.0 °F 27.5 °F 23.0 °F 59% 29.80 in 10.0 mi North 12.7 mph - N/A   Overcast
8:53 PM 35.1 °F 29.3 °F 19.0 °F 52% 29.78 in 10.0 mi North 6.9 mph - N/A   Overcast
9:11 PM 35.6 °F 30.7 °F 19.4 °F 52% 29.78 in 10.0 mi North 5.8 mph - N/A   Overcast
9:53 PM 34.0 °F 25.0 °F 23.0 °F 64% 29.76 in 10.0 mi North 12.7 mph - N/A   Overcast
10:01 PM 33.8 °F 24.3 °F 21.2 °F 60% 29.76 in 10.0 mi North 13.8 mph 20.7 mph N/A   Overcast
10:53 PM 33.1 °F 25.5 °F 21.0 °F 61% 29.74 in 10.0 mi North 9.2 mph - N/A   Overcast
11:53 PM 33.1 °F 24.4 °F 18.0 °F 54% 29.70 in 10.0 mi North 11.5 mph 20.7 mph N/A   Overcast